Time,TemperatureF,DewpointF,PressureIn,WindDirection,WindDirectionDegrees,WindSpeedMPH,WindSpeedGustMPH,Humidity,HourlyPrecipIn,Conditions,Clouds,dailyrainin,SoftwareType,DateUTC
2013-06-08 00:02:00,64.0,51.0,30.09,West,271,12.0,19.0,63,-99.99,,,-99.99,,2013-06-08 07:02:00,
2013-06-08 00:12:00,64.0,51.0,30.09,West,273,12.0,20.0,63,-99.99,,,-99.99,,2013-06-08 07:12:00,
2013-06-08 00:22:00,63.0,51.0,30.09,West,280,13.0,20.0,63,-99.99,,,-99.99,,2013-06-08 07:22:00,
2013-06-08 00:32:00,63.0,51.0,30.09,West,276,13.0,21.0,64,-99.99,,,-99.99,,2013-06-08 07:32:00,
2013-06-08 00:42:00,62.0,50.0,30.09,West,281,14.0,22.0,65,-99.99,,,-99.99,,2013-06-08 07:42:00,
2013-06-08 00:52:00,62.0,50.0,30.09,West,279,13.0,20.0,65,-99.99,,,-99.99,,2013-06-08 07:52:00,
2013-06-08 01:02:00,62.0,51.0,30.09,West,275,14.0,22.0,66,-99.99,,,-99.99,,2013-06-08 08:02:00,
2013-06-08 01:12:00,61.0,51.0,30.09,West,276,14.0,22.0,67,-99.99,,,-99.99,,2013-06-08 08:12:00,
2013-06-08 01:22:00,61.0,50.0,30.09,West,273,14.0,22.0,67,-99.99,,,-99.99,,2013-06-08 08:22:00,
2013-06-08 01:32:00,61.0,51.0,30.09,West,272,14.0,22.0,68,-99.99,,,-99.99,,2013-06-08 08:32:00,
2013-06-08 01:42:00,61.0,50.0,30.09,West,274,12.0,21.0,68,-99.99,,,-99.99,,2013-06-08 08:42:00,
2013-06-08 01:52:00,60.0,50.0,30.09,West,269,10.0,20.0,69,-99.99,,,-99.99,,2013-06-08 08:52:00,
2013-06-08 02:02:00,60.0,51.0,30.09,West,268,10.0,16.0,70,-99.99,,,-99.99,,2013-06-08 09:02:00,
2013-06-08 02:12:00,60.0,50.0,30.09,West,267,11.0,17.0,70,-99.99,,,-99.99,,2013-06-08 09:12:00,
2013-06-08 02:22:00,60.0,50.0,30.09,West,261,12.0,18.0,70,-99.99,,,-99.99,,2013-06-08 09:22:00,
2013-06-08 02:33:00,59.0,50.0,30.09,West,269,11.0,18.0,72,-99.99,,,-99.99,,2013-06-08 09:33:00,
2013-06-08 02:42:00,59.0,50.0,30.09,West,273,11.0,19.0,72,-99.99,,,-99.99,,2013-06-08 09:42:00,
2013-06-08 02:52:00,59.0,50.0,30.09,West,278,9.0,18.0,73,-99.99,,,-99.99,,2013-06-08 09:52:00,
2013-06-08 03:02:00,59.0,50.0,30.09,West,269,9.0,18.0,71,-99.99,,,-99.99,,2013-06-08 10:02:00,
2013-06-08 03:12:00,59.0,50.0,30.09,West,271,8.0,14.0,70,-99.99,,,-99.99,,2013-06-08 10:12:00,
2013-06-08 03:22:00,59.0,49.0,30.09,West,259,10.0,17.0,69,-99.99,,,-99.99,,2013-06-08 10:22:00,
2013-06-08 03:33:00,59.0,49.0,30.09,West,268,9.0,18.0,68,-99.99,,,-99.99,,2013-06-08 10:33:00,
2013-06-08 03:42:00,59.0,49.0,30.09,West,268,9.0,18.0,68,-99.99,,,-99.99,,2013-06-08 10:42:00,
2013-06-08 03:52:00,59.0,48.0,30.09,West,274,13.0,21.0,64,-99.99,,,-99.99,,2013-06-08 10:52:00,
2013-06-08 04:02:00,59.0,46.0,30.10,West,271,8.0,13.0,61,-99.99,,,-99.99,,2013-06-08 11:02:00,
2013-06-08 04:12:00,59.0,46.0,30.10,West,271,8.0,13.0,61,-99.99,,,-99.99,,2013-06-08 11:12:00,
2013-06-08 04:22:00,59.0,47.0,30.09,West,259,5.0,9.0,63,-99.99,,,-99.99,,2013-06-08 11:22:00,
2013-06-08 04:32:00,58.0,47.0,30.09,SSW,207,2.0,6.0,64,-99.99,,,-99.99,,2013-06-08 11:32:00,
2013-06-08 04:42:00,57.0,47.0,30.09,West,261,2.0,4.0,68,-99.99,,,-99.99,,2013-06-08 11:42:00,
2013-06-08 04:52:00,57.0,47.0,30.09,West,261,2.0,4.0,68,-99.99,,,-99.99,,2013-06-08 11:52:00,
2013-06-08 05:02:00,57.0,46.0,30.09,WSW,252,3.0,9.0,66,-99.99,,,-99.99,,2013-06-08 12:02:00,
2013-06-08 05:12:00,57.0,47.0,30.09,West,262,2.0,10.0,69,-99.99,,,-99.99,,2013-06-08 12:12:00,
2013-06-08 05:22:00,57.0,46.0,30.09,WSW,254,6.0,17.0,65,-99.99,,,-99.99,,2013-06-08 12:22:00,
2013-06-08 05:32:00,56.0,47.0,30.09,SSW,211,3.0,9.0,71,-99.99,,,-99.99,,2013-06-08 12:32:00,
2013-06-08 05:42:00,54.0,47.0,30.10,SW,222,1.0,3.0,76,-99.99,,,-99.99,,2013-06-08 12:42:00,
2013-06-08 05:52:00,53.0,46.0,30.10,ESE,123,1.0,4.0,76,-99.99,,,-99.99,,2013-06-08 12:52:00,
2013-06-08 06:02:00,53.0,46.0,30.10,SE,136,1.0,6.0,76,-99.99,,,-99.99,,2013-06-08 13:02:00,
2013-06-08 06:12:00,52.0,46.0,30.09,SW,228,2.0,3.0,78,-99.99,,,-99.99,,2013-06-08 13:12:00,
2013-06-08 06:22:00,52.0,46.0,30.10,West,269,1.0,3.0,81,-99.99,,,-99.99,,2013-06-08 13:22:00,
2013-06-08 06:32:00,56.0,46.0,30.10,WNW,298,5.0,12.0,69,-99.99,,,-99.99,,2013-06-08 13:32:00,
2013-06-08 06:42:00,56.0,46.0,30.10,WNW,298,5.0,12.0,69,-99.99,,,-99.99,,2013-06-08 13:42:00,
2013-06-08 06:52:00,57.0,47.0,30.10,West,265,4.0,9.0,69,-99.99,,,-99.99,,2013-06-08 13:52:00,
2013-06-08 07:02:00,57.0,47.0,30.10,West,265,4.0,9.0,69,-99.99,,,-99.99,,2013-06-08 14:02:00,
2013-06-08 07:12:00,57.0,46.0,30.10,WNW,286,8.0,14.0,65,-99.99,,,-99.99,,2013-06-08 14:12:00,
2013-06-08 07:22:00,57.0,45.0,30.10,SW,229,4.0,9.0,65,-99.99,,,-99.99,,2013-06-08 14:22:00,
2013-06-08 07:32:00,55.0,46.0,30.10,SW,215,4.0,6.0,72,-99.99,,,-99.99,,2013-06-08 14:32:00,
2013-06-08 07:42:00,55.0,46.0,30.10,South,180,2.0,4.0,71,-99.99,,,-99.99,,2013-06-08 14:42:00,
2013-06-08 07:52:00,57.0,47.0,30.10,WSW,258,2.0,9.0,70,-99.99,,,-99.99,,2013-06-08 14:52:00,
2013-06-08 08:02:00,58.0,45.0,30.10,West,281,11.0,19.0,60,-99.99,,,-99.99,,2013-06-08 15:02:00,
2013-06-08 08:12:00,59.0,45.0,30.10,WNW,282,10.0,17.0,60,-99.99,,,-99.99,,2013-06-08 15:12:00,
2013-06-08 08:22:00,60.0,46.0,30.10,NW,307,6.0,11.0,60,-99.99,,,-99.99,,2013-06-08 15:22:00,
2013-06-08 08:32:00,61.0,48.0,30.09,WNW,282,3.0,10.0,61,-99.99,,,-99.99,,2013-06-08 15:32:00,
2013-06-08 08:42:00,61.0,48.0,30.09,WNW,282,3.0,10.0,61,-99.99,,,-99.99,,2013-06-08 15:42:00,
2013-06-08 08:53:00,61.0,44.0,30.09,WNW,301,6.0,11.0,53,-99.99,,,-99.99,,2013-06-08 15:53:00,
2013-06-08 09:03:00,62.0,47.0,30.09,West,268,2.0,4.0,57,-99.99,,,-99.99,,2013-06-08 16:03:00,
2013-06-08 09:12:00,63.0,47.0,30.09,WSW,251,3.0,5.0,56,-99.99,,,-99.99,,2013-06-08 16:12:00,
2013-06-08 09:23:00,64.0,47.0,30.08,West,269,2.0,4.0,54,-99.99,,,-99.99,,2013-06-08 16:23:00,
2013-06-08 09:32:00,66.0,43.0,30.08,NW,305,4.0,12.0,42,-99.99,,,-99.99,,2013-06-08 16:32:00,
2013-06-08 09:42:00,66.0,43.0,30.08,NW,305,4.0,12.0,42,-99.99,,,-99.99,,2013-06-08 16:42:00,
2013-06-08 09:53:00,67.0,40.0,30.08,NNW,328,6.0,12.0,37,-99.99,,,-99.99,,2013-06-08 16:53:00,
2013-06-08 10:02:00,68.0,41.0,30.08,NW,304,5.0,10.0,37,-99.99,,,-99.99,,2013-06-08 17:02:00,
2013-06-08 10:12:00,68.0,40.0,30.08,WNW,294,8.0,13.0,35,-99.99,,,-99.99,,2013-06-08 17:12:00,
2013-06-08 10:22:00,69.0,40.0,30.08,WNW,302,9.0,16.0,34,-99.99,,,-99.99,,2013-06-08 17:22:00,
2013-06-08 10:32:00,70.0,40.0,30.07,WNW,291,10.0,19.0,33,-99.99,,,-99.99,,2013-06-08 17:32:00,
2013-06-08 10:42:00,70.0,40.0,30.07,WNW,291,10.0,19.0,33,-99.99,,,-99.99,,2013-06-08 17:42:00,
2013-06-08 10:52:00,70.0,40.0,30.07,WNW,291,11.0,18.0,34,-99.99,,,-99.99,,2013-06-08 17:52:00,
2013-06-08 11:02:00,70.0,39.0,30.06,WNW,291,12.0,21.0,32,-99.99,,,-99.99,,2013-06-08 18:02:00,
2013-06-08 11:12:00,70.0,38.0,30.06,WNW,292,13.0,21.0,30,-99.99,,,-99.99,,2013-06-08 18:12:00,
2013-06-08 11:22:00,70.0,37.0,30.06,WNW,292,15.0,23.0,29,-99.99,,,-99.99,,2013-06-08 18:22:00,
2013-06-08 11:32:00,71.0,38.0,30.05,WNW,292,15.0,22.0,29,-99.99,,,-99.99,,2013-06-08 18:32:00,
2013-06-08 11:41:00,71.0,38.0,30.05,WNW,292,15.0,22.0,29,-99.99,,,-99.99,,2013-06-08 18:41:00,
2013-06-08 11:52:00,72.0,40.0,30.05,WNW,290,13.0,22.0,31,-99.99,,,-99.99,,2013-06-08 18:52:00,
2013-06-08 12:02:00,72.0,40.0,30.05,WNW,287,12.0,20.0,30,-99.99,,,-99.99,,2013-06-08 19:02:00,
2013-06-08 12:12:00,73.0,38.0,30.04,WNW,286,15.0,25.0,28,-99.99,,,-99.99,,2013-06-08 19:12:00,
2013-06-08 12:22:00,73.0,39.0,30.04,WNW,291,13.0,22.0,28,-99.99,,,-99.99,,2013-06-08 19:22:00,
2013-06-08 12:32:00,73.0,38.0,30.04,WNW,286,16.0,25.0,28,-99.99,,,-99.99,,2013-06-08 19:32:00,
2013-06-08 12:42:00,74.0,38.0,30.04,WNW,285,16.0,27.0,27,-99.99,,,-99.99,,2013-06-08 19:42:00,
2013-06-08 12:52:00,74.0,38.0,30.04,WNW,289,15.0,30.0,27,-99.99,,,-99.99,,2013-06-08 19:52:00,
2013-06-08 13:02:00,74.0,37.0,30.04,WNW,285,14.0,25.0,25,-99.99,,,-99.99,,2013-06-08 20:02:00,
2013-06-08 13:12:00,74.0,35.0,30.04,WNW,288,15.0,26.0,23,-99.99,,,-99.99,,2013-06-08 20:12:00,
2013-06-08 13:22:00,75.0,35.0,30.03,West,279,16.0,27.0,23,-99.99,,,-99.99,,2013-06-08 20:22:00,
2013-06-08 13:32:00,76.0,36.0,30.03,West,275,18.0,29.0,23,-99.99,,,-99.99,,2013-06-08 20:32:00,
2013-06-08 13:42:00,76.0,36.0,30.03,West,275,18.0,29.0,23,-99.99,,,-99.99,,2013-06-08 20:42:00,
2013-06-08 13:52:00,76.0,36.0,30.04,West,276,17.0,25.0,23,-99.99,,,-99.99,,2013-06-08 20:52:00,
2013-06-08 14:02:00,76.0,36.0,30.04,West,276,17.0,25.0,23,-99.99,,,-99.99,,2013-06-08 21:02:00,
2013-06-08 14:12:00,77.0,38.0,30.04,West,268,14.0,22.0,24,-99.99,,,-99.99,,2013-06-08 21:12:00,
2013-06-08 14:22:00,78.0,37.0,30.04,West,260,12.0,21.0,23,-99.99,,,-99.99,,2013-06-08 21:22:00,
2013-06-08 14:33:00,78.0,38.0,30.04,West,260,11.0,18.0,23,-99.99,,,-99.99,,2013-06-08 21:33:00,
2013-06-08 14:43:00,79.0,38.0,30.05,West,273,10.0,17.0,23,-99.99,,,-99.99,,2013-06-08 21:43:00,
2013-06-08 14:52:00,80.0,38.0,30.04,West,261,7.0,13.0,22,-99.99,,,-99.99,,2013-06-08 21:52:00,
2013-06-08 15:02:00,80.0,38.0,30.04,West,261,7.0,13.0,22,-99.99,,,-99.99,,2013-06-08 22:02:00,
2013-06-08 15:12:00,80.0,38.0,30.03,WNW,291,7.0,11.0,22,-99.99,,,-99.99,,2013-06-08 22:12:00,
2013-06-08 15:22:00,80.0,38.0,30.03,WNW,283,6.0,14.0,22,-99.99,,,-99.99,,2013-06-08 22:22:00,
2013-06-08 15:33:00,81.0,38.0,30.03,WNW,282,6.0,11.0,22,-99.99,,,-99.99,,2013-06-08 22:33:00,
2013-06-08 15:42:00,81.0,39.0,30.03,West,281,6.0,12.0,22,-99.99,,,-99.99,,2013-06-08 22:42:00,
2013-06-08 15:52:00,81.0,37.0,30.03,WNW,286,3.0,10.0,20,-99.99,,,-99.99,,2013-06-08 22:52:00,
2013-06-08 16:02:00,81.0,37.0,30.03,WNW,286,3.0,10.0,20,-99.99,,,-99.99,,2013-06-08 23:02:00,
2013-06-08 16:12:00,82.0,37.0,30.03,WNW,296,7.0,15.0,20,-99.99,,,-99.99,,2013-06-08 23:12:00,
2013-06-08 16:22:00,82.0,38.0,30.02,WNW,296,6.0,12.0,20,-99.99,,,-99.99,,2013-06-08 23:22:00,
2013-06-08 16:32:00,83.0,39.0,30.02,NNW,343,2.0,7.0,20,-99.99,,,-99.99,,2013-06-08 23:32:00,
2013-06-08 16:42:00,83.0,39.0,30.02,WNW,282,5.0,9.0,20,-99.99,,,-99.99,,2013-06-08 23:42:00,
2013-06-08 16:52:00,83.0,40.0,30.02,WNW,297,5.0,15.0,22,-99.99,,,-99.99,,2013-06-08 23:52:00,
2013-06-08 17:02:00,83.0,40.0,30.02,WNW,297,5.0,15.0,22,-99.99,,,-99.99,,2013-06-09 00:02:00,
2013-06-08 17:12:00,82.0,40.0,30.01,WNW,286,7.0,20.0,22,-99.99,,,-99.99,,2013-06-09 00:12:00,
2013-06-08 17:22:00,82.0,41.0,30.01,WNW,287,6.0,15.0,23,-99.99,,,-99.99,,2013-06-09 00:22:00,
2013-06-08 17:32:00,81.0,41.0,30.01,WNW,290,9.0,18.0,24,-99.99,,,-99.99,,2013-06-09 00:32:00,
2013-06-08 17:42:00,80.0,41.0,30.01,West,280,8.0,17.0,25,-99.99,,,-99.99,,2013-06-09 00:42:00,
2013-06-08 17:52:00,79.0,42.0,30.01,West,271,8.0,19.0,26,-99.99,,,-99.99,,2013-06-09 00:52:00,
2013-06-08 18:02:00,79.0,42.0,30.01,West,271,8.0,19.0,26,-99.99,,,-99.99,,2013-06-09 01:02:00,
2013-06-08 18:12:00,80.0,42.0,30.01,West,273,11.0,22.0,26,-99.99,,,-99.99,,2013-06-09 01:12:00,
2013-06-08 18:22:00,79.0,43.0,30.01,West,274,8.0,15.0,27,-99.99,,,-99.99,,2013-06-09 01:22:00,
2013-06-08 18:32:00,79.0,43.0,30.01,West,277,8.0,16.0,28,-99.99,,,-99.99,,2013-06-09 01:32:00,
2013-06-08 18:42:00,79.0,43.0,30.01,West,277,8.0,16.0,28,-99.99,,,-99.99,,2013-06-09 01:42:00,
2013-06-08 18:52:00,79.0,42.0,30.01,WNW,285,9.0,19.0,26,-99.99,,,-99.99,,2013-06-09 01:52:00,
2013-06-08 19:02:00,79.0,42.0,30.01,WNW,285,9.0,19.0,26,-99.99,,,-99.99,,2013-06-09 02:02:00,
2013-06-08 19:12:00,78.0,43.0,30.01,West,270,8.0,21.0,28,-99.99,,,-99.99,,2013-06-09 02:12:00,
2013-06-08 19:22:00,78.0,43.0,30.01,West,276,11.0,20.0,28,-99.99,,,-99.99,,2013-06-09 02:22:00,
2013-06-08 19:32:00,77.0,42.0,30.01,WNW,286,7.0,19.0,28,-99.99,,,-99.99,,2013-06-09 02:32:00,
2013-06-08 19:42:00,77.0,42.0,30.01,WNW,286,7.0,19.0,28,-99.99,,,-99.99,,2013-06-09 02:42:00,
2013-06-08 19:52:00,77.0,43.0,30.01,West,277,11.0,19.0,30,-99.99,,,-99.99,,2013-06-09 02:52:00,
2013-06-08 20:02:00,76.0,44.0,30.01,West,271,6.0,15.0,31,-99.99,,,-99.99,,2013-06-09 03:02:00,
2013-06-08 20:12:00,76.0,44.0,30.01,West,272,10.0,16.0,31,-99.99,,,-99.99,,2013-06-09 03:12:00,
2013-06-08 20:22:00,75.0,44.0,30.01,West,264,8.0,16.0,32,-99.99,,,-99.99,,2013-06-09 03:22:00,
2013-06-08 20:32:00,75.0,44.0,30.01,West,270,5.0,9.0,33,-99.99,,,-99.99,,2013-06-09 03:32:00,
2013-06-08 20:43:00,74.0,43.0,30.01,West,271,8.0,16.0,32,-99.99,,,-99.99,,2013-06-09 03:43:00,
2013-06-08 20:53:00,73.0,42.0,30.01,West,272,6.0,12.0,32,-99.99,,,-99.99,,2013-06-09 03:53:00,
2013-06-08 21:02:00,73.0,42.0,30.01,West,272,6.0,12.0,32,-99.99,,,-99.99,,2013-06-09 04:02:00,
2013-06-08 21:12:00,72.0,40.0,30.01,West,276,8.0,15.0,31,-99.99,,,-99.99,,2013-06-09 04:12:00,
2013-06-08 21:22:00,72.0,40.0,30.01,West,279,7.0,13.0,31,-99.99,,,-99.99,,2013-06-09 04:22:00,
2013-06-08 21:32:00,71.0,41.0,30.02,WNW,289,4.0,10.0,34,-99.99,,,-99.99,,2013-06-09 04:32:00,
2013-06-08 21:42:00,71.0,41.0,30.02,WNW,289,4.0,10.0,34,-99.99,,,-99.99,,2013-06-09 04:42:00,
2013-06-08 21:52:00,71.0,42.0,30.02,WNW,292,4.0,10.0,35,-99.99,,,-99.99,,2013-06-09 04:52:00,
2013-06-08 22:02:00,71.0,43.0,30.02,WNW,292,5.0,12.0,36,-99.99,,,-99.99,,2013-06-09 05:02:00,
2013-06-08 22:12:00,70.0,43.0,30.02,WNW,291,5.0,9.0,37,-99.99,,,-99.99,,2013-06-09 05:12:00,
2013-06-08 22:22:00,70.0,43.0,30.03,WNW,285,4.0,8.0,37,-99.99,,,-99.99,,2013-06-09 05:22:00,
2013-06-08 22:32:00,69.0,42.0,30.03,WNW,302,6.0,11.0,37,-99.99,,,-99.99,,2013-06-09 05:32:00,
2013-06-08 22:42:00,69.0,42.0,30.03,WNW,302,6.0,11.0,37,-99.99,,,-99.99,,2013-06-09 05:42:00,
2013-06-08 22:52:00,69.0,43.0,30.03,WNW,290,6.0,12.0,39,-99.99,,,-99.99,,2013-06-09 05:52:00,
2013-06-08 23:02:00,69.0,45.0,30.03,WNW,288,4.0,9.0,42,-99.99,,,-99.99,,2013-06-09 06:02:00,
2013-06-08 23:11:00,68.0,46.0,30.03,WNW,297,5.0,9.0,44,-99.99,,,-99.99,,2013-06-09 06:11:00,
2013-06-08 23:22:00,68.0,47.0,30.03,WNW,292,5.0,11.0,48,-99.99,,,-99.99,,2013-06-09 06:22:00,
2013-06-08 23:32:00,67.0,49.0,30.02,WNW,284,5.0,9.0,52,-99.99,,,-99.99,,2013-06-09 06:32:00,
2013-06-08 23:42:00,67.0,49.0,30.02,WNW,284,5.0,9.0,52,-99.99,,,-99.99,,2013-06-09 06:42:00,
2013-06-08 23:52:00,67.0,50.0,30.02,WNW,294,6.0,11.0,54,-99.99,,,-99.99,,2013-06-09 06:52:00,